TimeEDT,TemperatureF,Dew PointF,Humidity,Sea Level PressureIn,VisibilityMPH,Wind Direction,Wind SpeedMPH,Gust SpeedMPH,PrecipitationIn,Events,Conditions,WindDirDegrees,DateUTC
12:15 AM,32.0,21.2,64,30.20,10.0,Calm,Calm,-,N/A,,Clear,0,2014-03-14 04:15:00
12:35 AM,30.2,21.2,69,30.20,10.0,SSW,3.5,-,N/A,,Clear,200,2014-03-14 04:35:00
12:55 AM,32.0,19.4,60,30.18,10.0,Calm,Calm,-,N/A,,Clear,0,2014-03-14 04:55:00
1:15 AM,32.0,17.6,55,30.18,10.0,Calm,Calm,-,N/A,,Clear,0,2014-03-14 05:15:00
1:35 AM,32.0,17.6,55,30.18,10.0,Calm,Calm,-,N/A,,Clear,0,2014-03-14 05:35:00
1:55 AM,32.0,15.8,51,30.18,10.0,Calm,Calm,-,N/A,,Clear,0,2014-03-14 05:55:00
2:15 AM,32.0,15.8,51,30.18,10.0,SSE,3.5,-,N/A,,Clear,160,2014-03-14 06:15:00
2:35 AM,32.0,15.8,51,30.18,10.0,South,3.5,-,N/A,,Clear,180,2014-03-14 06:35:00
2:55 AM,33.8,15.8,48,30.18,10.0,South,4.6,-,N/A,,Clear,170,2014-03-14 06:55:00
3:15 AM,33.8,15.8,48,30.17,10.0,South,4.6,-,N/A,,Clear,180,2014-03-14 07:15:00
3:35 AM,33.8,15.8,48,30.17,10.0,South,5.8,-,N/A,,Clear,170,2014-03-14 07:35:00
3:55 AM,33.8,15.8,48,30.16,10.0,SSE,5.8,-,N/A,,Clear,160,2014-03-14 07:55:00
4:15 AM,33.8,15.8,48,30.16,10.0,South,5.8,-,N/A,,Clear,170,2014-03-14 08:15:00
4:35 AM,33.8,15.8,48,30.17,10.0,South,5.8,-,N/A,,Clear,170,2014-03-14 08:35:00
4:55 AM,33.8,15.8,48,30.16,10.0,SSE,4.6,-,N/A,,Clear,160,2014-03-14 08:55:00
5:15 AM,33.8,15.8,48,30.16,10.0,South,4.6,-,N/A,,Clear,170,2014-03-14 09:15:00
5:35 AM,33.8,15.8,48,30.16,10.0,South,4.6,-,N/A,,Clear,170,2014-03-14 09:35:00
5:55 AM,35.6,17.6,48,30.15,10.0,South,5.8,-,N/A,,Clear,170,2014-03-14 09:55:00
6:15 AM,35.6,17.6,48,30.15,10.0,SSE,5.8,-,N/A,,Clear,160,2014-03-14 10:15:00
6:35 AM,35.6,17.6,48,30.15,10.0,South,5.8,-,N/A,,Clear,170,2014-03-14 10:35:00
6:55 AM,35.6,17.6,48,30.15,10.0,SSE,5.8,-,N/A,,Clear,160,2014-03-14 10:55:00
7:15 AM,35.6,17.6,48,30.15,10.0,South,5.8,-,N/A,,Clear,170,2014-03-14 11:15:00
7:35 AM,35.6,17.6,48,30.15,10.0,South,5.8,-,N/A,,Clear,170,2014-03-14 11:35:00
7:55 AM,35.6,17.6,48,30.15,10.0,South,5.8,-,N/A,,Clear,170,2014-03-14 11:55:00
8:15 AM,37.4,17.6,45,30.15,10.0,South,5.8,-,N/A,,Clear,170,2014-03-14 12:15:00
8:35 AM,37.4,17.6,45,30.16,10.0,South,5.8,-,N/A,,Clear,180,2014-03-14 12:35:00
8:55 AM,39.2,17.6,42,30.16,10.0,South,5.8,-,N/A,,Clear,180,2014-03-14 12:55:00
9:15 AM,41.0,19.4,42,30.17,10.0,South,6.9,-,N/A,,Clear,180,2014-03-14 13:15:00
9:35 AM,42.8,19.4,39,30.17,10.0,South,5.8,-,N/A,,Clear,190,2014-03-14 13:35:00
9:55 AM,44.6,21.2,39,30.17,10.0,SSW,6.9,-,N/A,,Clear,200,2014-03-14 13:55:00
10:15 AM,46.4,21.2,37,30.17,10.0,South,8.1,-,N/A,,Clear,180,2014-03-14 14:15:00
10:35 AM,48.2,23.0,37,30.17,10.0,SSW,9.2,-,N/A,,Clear,210,2014-03-14 14:35:00
10:55 AM,51.8,24.8,35,30.17,10.0,SSW,10.4,-,N/A,,Clear,210,2014-03-14 14:55:00
11:15 AM,51.8,24.8,35,30.16,10.0,SSW,9.2,-,N/A,,Clear,210,2014-03-14 15:15:00
11:35 AM,53.6,26.6,35,30.15,10.0,SW,13.8,17.3,N/A,,Clear,220,2014-03-14 15:35:00
11:55 AM,55.4,26.6,33,30.15,10.0,SW,8.1,-,N/A,,Clear,220,2014-03-14 15:55:00
12:15 PM,55.4,26.6,33,30.14,10.0,SW,17.3,24.2,N/A,,Clear,230,2014-03-14 16:15:00
12:35 PM,57.2,28.4,33,30.13,10.0,WSW,16.1,23.0,N/A,,Clear,240,2014-03-14 16:35:00
12:55 PM,57.2,28.4,33,30.12,10.0,WSW,17.3,27.6,N/A,,Clear,240,2014-03-14 16:55:00
1:15 PM,59.0,28.4,31,30.11,10.0,SW,18.4,26.5,N/A,,Clear,230,2014-03-14 17:15:00
1:35 PM,59.0,28.4,31,30.10,10.0,WSW,17.3,27.6,N/A,,Clear,240,2014-03-14 17:35:00
1:55 PM,59.0,28.4,31,30.08,10.0,WSW,21.9,31.1,N/A,,Clear,240,2014-03-14 17:55:00
2:15 PM,59.0,26.6,29,30.05,10.0,WSW,18.4,31.1,N/A,,Clear,250,2014-03-14 18:15:00
2:35 PM,60.8,28.4,29,30.04,10.0,SW,15.0,-,N/A,,Clear,230,2014-03-14 18:35:00
2:55 PM,60.8,26.6,27,30.03,10.0,WSW,17.3,31.1,N/A,,Clear,240,2014-03-14 18:55:00
3:15 PM,60.8,26.6,27,30.02,10.0,WSW,19.6,23.0,N/A,,Clear,240,2014-03-14 19:15:00
3:35 PM,62.6,26.6,26,30.02,10.0,WSW,28.8,33.4,N/A,,Clear,250,2014-03-14 19:35:00
3:55 PM,60.8,26.6,27,30.01,10.0,WSW,24.2,32.2,N/A,,Clear,250,2014-03-14 19:55:00
4:15 PM,59.0,26.6,29,30.00,10.0,WSW,20.7,26.5,N/A,,Scattered Clouds,240,2014-03-14 20:15:00
4:35 PM,59.0,26.6,29,30.00,10.0,WSW,15.0,25.3,N/A,,Mostly Cloudy,240,2014-03-14 20:35:00
4:55 PM,59.0,26.6,29,29.98,10.0,WSW,12.7,19.6,N/A,,Mostly Cloudy,240,2014-03-14 20:55:00
5:15 PM,60.8,26.6,27,29.98,10.0,WSW,17.3,26.5,N/A,,Scattered Clouds,250,2014-03-14 21:15:00
5:35 PM,60.8,24.8,25,29.98,10.0,SW,16.1,28.8,N/A,,Scattered Clouds,230,2014-03-14 21:35:00
5:55 PM,59.0,26.6,29,29.98,10.0,WSW,15.0,23.0,N/A,,Clear,240,2014-03-14 21:55:00
6:15 PM,59.0,26.6,29,29.98,10.0,WSW,12.7,21.9,N/A,,Clear,240,2014-03-14 22:15:00
6:35 PM,59.0,26.6,29,29.98,10.0,WSW,8.1,-,N/A,,Mostly Cloudy,240,2014-03-14 22:35:00
6:55 PM,59.0,28.4,31,29.98,10.0,WSW,8.1,-,N/A,,Overcast,240,2014-03-14 22:55:00
7:15 PM,57.2,28.4,33,29.98,10.0,WSW,9.2,-,N/A,,Overcast,240,2014-03-14 23:15:00
7:35 PM,59.0,28.4,31,29.98,10.0,WSW,9.2,-,N/A,,Overcast,240,2014-03-14 23:35:00
7:55 PM,59.0,28.4,31,29.99,10.0,WSW,16.1,26.5,N/A,,Overcast,240,2014-03-14 23:55:00
8:15 PM,59.0,28.4,31,29.99,10.0,WSW,15.0,23.0,N/A,,Overcast,240,2014-03-15 00:15:00
8:35 PM,59.0,28.4,31,29.99,10.0,WSW,10.4,17.3,N/A,,Overcast,240,2014-03-15 00:35:00
8:55 PM,57.2,28.4,33,29.99,10.0,SW,8.1,-,N/A,,Overcast,230,2014-03-15 00:55:00
9:15 PM,57.2,28.4,33,29.99,10.0,SW,10.4,-,N/A,,Overcast,230,2014-03-15 01:15:00
9:35 PM,59.0,28.4,31,30.01,10.0,SW,19.6,28.8,N/A,,Overcast,230,2014-03-15 01:35:00
9:55 PM,57.2,30.2,36,30.01,10.0,SW,12.7,21.9,N/A,,Overcast,230,2014-03-15 01:55:00
10:15 PM,55.4,30.2,38,30.01,10.0,SW,9.2,17.3,N/A,,Overcast,230,2014-03-15 02:15:00
10:35 PM,55.4,32.0,41,30.02,10.0,WSW,9.2,-,N/A,,Mostly Cloudy,240,2014-03-15 02:35:00
10:55 PM,55.4,32.0,41,30.02,10.0,SW,8.1,-,N/A,,Overcast,230,2014-03-15 02:55:00
11:15 PM,55.4,32.0,41,30.02,10.0,SW,9.2,-,N/A,,Overcast,220,2014-03-15 03:15:00
11:35 PM,55.4,32.0,41,30.02,10.0,WSW,6.9,-,N/A,,Overcast,240,2014-03-15 03:35:00
11:55 PM,55.4,32.0,41,30.02,10.0,WSW,13.8,21.9,N/A,,Overcast,250,2014-03-15 03:55:00